Waarnemingen

Advertentie
Mijn weer
Cap Bear, Frankrijk (7749): temperatuur & dauwpunt: 20.05.2017 17:00:00 - 26.05.2017 17:00:00 (CEST)Cap Bear, Frankrijk (7749): windsnelheid & windstoten: 20.05.2017 17:00:00 - 26.05.2017 17:00:00 (CEST)Cap Bear, Frankrijk (7749): windrichting: 20.05.2017 17:00:00 - 26.05.2017 17:00:00 (CEST)Cap Bear, Frankrijk (7749): luchtdruk: 20.05.2017 17:00:00 - 26.05.2017 17:00:00 (CEST)Cap Bear, Frankrijk (7749): zicht: 20.05.2017 17:00:00 - 26.05.2017 17:00:00 (CEST)Cap Bear, Frankrijk (7749): neerslag: 20.05.2017 17:00:00 - 26.05.2017 17:00:00 (CEST)
Datum & Tijd tt [°C] td [°C] ff [km/u] ff [kn] fx [km/u] fx [kn] dd ppp [hPa] vv [km] rr [mm]
26.05.2017 17:00:00 - - - - - - - - - -
26.05.2017 16:00:00 19,1 17,6 28 15 41 22 ZO 1016,3 - 0,0
26.05.2017 15:00:00 19,1 17,4 27 15 31 17 ZO 1016,5 - 0,0
26.05.2017 14:00:00 19,5 17,3 19 11 28 15 ZO 1017,0 15 0,0
26.05.2017 13:00:00 19,3 17,1 15 8 23 12 ZO 1017,1 - 0,0
26.05.2017 12:00:00 19,7 17,8 12 7 19 10 ZO 1017,2 - 0,0
26.05.2017 11:00:00 18,1 17,1 10 6 15 8 ONO 1017,3 - 0,0
26.05.2017 10:00:00 17,6 17,6 11 6 16 9 ONO 1017,2 - 0,0
26.05.2017 09:00:00 17,7 17,7 9 5 14 8 ZO 1016,8 - 0,0
26.05.2017 08:00:00 16,8 - 5 3 13 7 ZZO - 8 0,0
26.05.2017 07:00:00 16,4 - 3 2 10 5 ZZO - - 0,0
26.05.2017 06:00:00 16,6 - 3 2 11 6 Z - - 0,0
26.05.2017 05:00:00 16,9 - 9 5 16 9 ZZO - 10 0,0
26.05.2017 04:00:00 17,0 - 8 5 15 8 ZO - - 0,0
26.05.2017 03:00:00 17,2 - 13 7 18 10 ZZO - - 0,0
26.05.2017 02:00:00 17,7 - 13 7 18 10 ZO - - 0,0
26.05.2017 01:00:00 17,9 - 10 5 21 12 Z - - 0,0
26.05.2017 00:00:00 18,1 - 20 11 23 12 ZZO - - 0,0
25.05.2017 23:00:00 18,6 18,6 16 8 23 12 ZZO 1014,9 - 0,0
25.05.2017 22:00:00 19,3 18,3 22 12 30 16 ZZO 1014,0 - 0,0
25.05.2017 21:00:00 21,1 16,1 27 15 39 21 ZZO 1013,7 - 0,0
25.05.2017 20:00:00 20,5 16,5 25 14 44 24 Z 1013,3 20 0,0
25.05.2017 19:00:00 22,1 15,4 37 20 44 24 ZZO 1013,4 - 0,0
25.05.2017 18:00:00 20,4 18,2 36 20 42 23 ZZO 1013,9 - 0,0
25.05.2017 17:00:00 21,5 18,7 30 16 39 21 ZZO 1014,0 20 0,0
25.05.2017 16:00:00 23,6 15,1 33 18 39 21 ZZO 1014,0 - 0,0
25.05.2017 15:00:00 24,1 15,0 25 13 34 18 ZZO 1014,3 - 0,0
25.05.2017 14:00:00 24,9 14,7 24 13 29 16 ZZO 1014,6 25 0,0
25.05.2017 13:00:00 24,4 15,3 19 11 25 14 ZZO 1014,7 - 0,0
25.05.2017 12:00:00 26,8 12,8 10 5 15 8 ZZO 1014,8 - 0,0
25.05.2017 11:00:00 27,0 14,4 5 3 11 6 O 1014,8 25 0,0
25.05.2017 10:00:00 25,7 14,8 4 2 8 5 NNW 1015,0 - 0,0
25.05.2017 09:00:00 25,9 15,3 0 0 5 3 N 1014,9 - 0,0
25.05.2017 08:00:00 26,4 14,8 0 0 12 7 N 1015,1 20 0,0
25.05.2017 07:00:00 23,8 13,1 10 6 24 13 NW 1015,1 - 0,0
25.05.2017 06:00:00 20,3 14,6 19 11 31 17 NW 1015,1 - 0,0
25.05.2017 05:00:00 22,6 13,6 28 15 33 18 NW 1015,2 20 0,0
25.05.2017 04:00:00 22,5 11,9 21 12 29 16 NW 1015,4 - 0,0
25.05.2017 03:00:00 24,7 10,6 20 11 25 14 NW 1015,6 - 0,0
25.05.2017 02:00:00 24,4 12,0 14 8 27 14 NW 1016,1 - 0,0
25.05.2017 01:00:00 23,7 13,3 20 11 31 17 NW 1016,3 - 0,0
25.05.2017 00:00:00 24,2 13,7 18 10 30 16 NW 1016,5 - 0,0
24.05.2017 23:00:00 26,0 11,4 10 5 16 9 NW 1016,8 - 0,0
24.05.2017 22:00:00 26,3 10,8 4 2 20 11 WNW 1016,4 - 0,0
24.05.2017 21:00:00 25,8 12,6 13 7 24 13 ZZW 1016,3 - 0,0
24.05.2017 20:00:00 24,7 11,3 15 8 23 12 Z 1016,6 25 0,0
24.05.2017 19:00:00 24,6 12,2 14 7 26 14 Z 1016,8 - 0,0
24.05.2017 18:00:00 24,1 13,3 22 12 32 17 ZZO 1017,3 - 0,0
24.05.2017 17:00:00 24,2 14,6 14 7 18 10 Z 1017,8 20 0,0
24.05.2017 16:00:00 27,5 11,5 4 2 13 7 O 1018,3 - 0,0
24.05.2017 15:00:00 25,8 11,9 3 2 13 7 O 1018,9 - 0,0
24.05.2017 14:00:00 25,1 14,5 10 5 14 8 NO 1019,2 25 0,0
24.05.2017 13:00:00 23,5 15,0 11 6 14 7 N 1019,7 - 0,0
24.05.2017 12:00:00 23,0 14,0 10 5 16 9 NNW 1019,9 - 0,0
24.05.2017 11:00:00 23,3 14,8 13 7 22 12 NNW 1020,1 25 0,0
24.05.2017 10:00:00 23,2 13,7 17 9 29 16 NW 1020,2 - 0,0
24.05.2017 09:00:00 21,4 15,0 22 12 38 20 NW 1020,1 - 0,0
24.05.2017 08:00:00 22,5 11,2 29 16 42 23 NW 1019,8 25 0,0
24.05.2017 07:00:00 21,4 11,1 31 17 42 23 NW 1019,5 - 0,0
24.05.2017 06:00:00 21,5 10,6 32 17 45 25 WNW 1019,2 - 0,0
24.05.2017 05:00:00 21,7 11,1 33 18 49 26 NW 1019,4 25 0,0
24.05.2017 04:00:00 22,2 10,7 36 19 53 29 WNW 1019,6 - 0,0
24.05.2017 03:00:00 21,2 11,8 38 20 54 29 NW 1019,8 - 0,0
24.05.2017 02:00:00 21,6 11,3 33 18 51 27 NW 1019,9 - 0,0
24.05.2017 01:00:00 20,3 13,3 39 21 54 29 NW 1020,1 - 0,0
24.05.2017 00:00:00 21,2 13,1 41 22 52 28 NW 1019,8 - 0,0
23.05.2017 23:00:00 21,8 13,2 44 24 59 32 NW 1019,5 - 0,0
23.05.2017 22:00:00 22,7 13,2 41 22 59 32 NW 1019,0 - 0,0
23.05.2017 21:00:00 23,7 12,7 32 18 56 30 NW 1018,9 - 0,0
23.05.2017 20:00:00 24,9 12,8 42 23 60 33 NW 1018,2 25 0,0
23.05.2017 19:00:00 25,5 12,3 44 24 57 31 NW 1018,2 - 0,0
23.05.2017 18:00:00 24,8 13,7 42 23 49 26 NW 1018,5 - 0,0
23.05.2017 17:00:00 25,0 14,5 32 17 41 22 NW 1019,0 25 0,0
23.05.2017 16:00:00 21,9 16,2 32 18 45 24 N 1019,6 - 0,0
23.05.2017 15:00:00 23,2 17,2 39 21 44 24 N 1019,6 - 0,0
23.05.2017 14:00:00 24,4 17,1 28 15 45 24 N 1019,8 25 0,0
23.05.2017 13:00:00 23,5 15,0 40 22 53 28 NNW 1019,8 - 0,0
23.05.2017 12:00:00 23,5 15,3 44 24 59 32 NW 1019,7 - 0,0
23.05.2017 11:00:00 23,5 14,2 42 23 57 31 NW 1019,5 20 0,0
23.05.2017 10:00:00 21,9 15,3 46 25 63 34 NW 1019,3 - 0,0
23.05.2017 09:00:00 20,7 15,3 48 26 64 35 NW 1019,2 - 0,0
23.05.2017 08:00:00 20,2 14,8 43 23 68 37 NW 1018,7 18 0,0
23.05.2017 07:00:00 19,8 14,8 38 20 62 33 NW 1018,4 - 0,0
23.05.2017 06:00:00 19,8 15,2 40 21 66 36 NW 1017,8 - 0,0
23.05.2017 05:00:00 19,6 16,1 38 20 64 35 NW 1017,9 - 0,0
23.05.2017 04:00:00 19,0 16,6 35 19 53 29 NW 1018,2 - 0,0
23.05.2017 03:00:00 17,2 17,2 5 3 17 9 WZW 1018,8 - 0,0
23.05.2017 02:00:00 17,8 16,7 10 5 31 17 NNW 1018,7 - 0,0
23.05.2017 01:00:00 16,9 16,9 22 12 25 13 NW 1018,9 - 0,0
23.05.2017 00:00:00 17,0 17,0 6 4 31 17 W 1019,2 - 0,0
22.05.2017 23:00:00 17,2 - 23 13 31 17 NW - - 0,0
22.05.2017 22:00:00 17,2 - 22 12 28 15 NW - - 0,0
22.05.2017 21:00:00 17,1 - 11 6 17 9 NW - - 0,0
22.05.2017 20:00:00 17,2 - 3 2 9 5 Z - 10 0,0
22.05.2017 19:00:00 17,2 17,2 6 3 12 7 ZZO 1018,4 - 0,0
22.05.2017 18:00:00 17,4 17,4 7 4 20 11 ZZO 1018,6 - 0,0
22.05.2017 17:00:00 17,7 17,7 15 8 27 14 ZO 1018,2 10 0,0
22.05.2017 16:00:00 18,0 18,0 9 5 20 11 ZO 1018,7 - 0,0
22.05.2017 15:00:00 18,9 18,6 10 5 19 10 ZZO 1018,6 - 0,0
22.05.2017 14:00:00 19,7 18,5 11 6 17 9 ZZO 1018,5 15 0,0
22.05.2017 13:00:00 19,8 17,8 6 3 16 9 O 1018,6 - 0,0
22.05.2017 12:00:00 21,4 17,6 13 7 16 9 NO 1018,4 - 0,0
22.05.2017 11:00:00 19,9 17,5 11 6 12 7 N 1018,4 - 0,0
22.05.2017 10:00:00 19,6 17,4 7 4 13 7 N 1018,0 - 0,0
22.05.2017 09:00:00 18,7 16,5 10 5 17 9 NNW 1017,5 - 0,0
22.05.2017 08:00:00 17,4 16,1 13 7 18 10 NW 1017,2 15 0,0
22.05.2017 07:00:00 16,0 15,7 8 4 16 9 NW 1016,7 - 0,0
22.05.2017 06:00:00 16,1 15,9 10 6 21 11 NW 1016,3 - 0,0
22.05.2017 05:00:00 16,0 15,7 15 8 21 11 WNW 1016,2 - 0,0
22.05.2017 04:00:00 16,2 15,4 11 6 19 11 WNW 1016,1 - 0,0
22.05.2017 03:00:00 16,8 13,5 4 2 13 7 NW 1016,5 - 0,0
22.05.2017 02:00:00 16,8 12,5 4 2 16 9 NNO 1017,1 - 0,0
22.05.2017 01:00:00 17,3 15,3 14 8 19 10 ZZW 1017,5 - 0,0
22.05.2017 00:00:00 17,7 15,3 9 5 19 11 Z 1017,8 - 0,0
21.05.2017 23:00:00 18,5 14,4 15 8 23 12 ZZW 1018,0 - 0,0
21.05.2017 22:00:00 18,2 14,7 21 12 29 16 ZZW 1018,3 - 0,0
21.05.2017 21:00:00 17,3 15,1 21 11 33 18 Z 1018,6 - 0,0
21.05.2017 20:00:00 18,4 13,5 28 15 32 18 ZZO 1018,8 - 0,0
21.05.2017 19:00:00 18,5 10,8 27 14 29 16 ZZO 1019,0 - 0,0
21.05.2017 18:00:00 18,6 12,6 26 14 28 15 ZZO 1019,4 - 0,0
21.05.2017 17:00:00 18,7 10,3 26 14 30 16 ZZO 1020,0 - 0,0
21.05.2017 16:00:00 19,2 10,5 25 13 29 16 ZZO 1020,4 - 0,0
21.05.2017 15:00:00 19,5 11,3 21 12 23 13 ZZO 1020,9 - 0,0
21.05.2017 14:00:00 19,3 12,1 12 6 19 10 ZO 1021,4 - 0,0
21.05.2017 13:00:00 19,1 8,1 10 6 16 9 ONO 1022,1 - 0,0
21.05.2017 12:00:00 20,9 10,7 16 9 25 13 NO 1022,2 - 0,0
21.05.2017 11:00:00 20,7 12,9 16 9 21 11 NNO 1022,4 30 0,0
21.05.2017 10:00:00 19,8 7,8 13 7 24 13 NW 1022,3 - 0,0
21.05.2017 09:00:00 18,3 9,4 17 9 30 16 WNW 1022,5 - 0,0
21.05.2017 08:00:00 16,9 8,3 20 11 29 16 WNW 1022,7 20 0,0
21.05.2017 07:00:00 15,3 9,4 19 10 42 23 NW 1022,8 - 0,0
21.05.2017 06:00:00 15,9 7,4 33 18 43 23 WNW 1022,6 - 0,0
21.05.2017 05:00:00 15,8 8,3 26 14 40 22 NW 1023,0 20 0,0
21.05.2017 04:00:00 16,0 8,5 26 14 50 27 WNW 1023,3 - 0,0
21.05.2017 03:00:00 16,0 8,0 32 18 46 25 NW 1023,5 - 0,0
21.05.2017 02:00:00 16,3 7,8 31 17 45 24 NW 1024,2 - 0,0
21.05.2017 01:00:00 16,7 7,3 30 16 41 22 NW 1024,7 - 0,0
21.05.2017 00:00:00 17,2 7,5 29 16 46 25 NW 1024,7 - 0,0
20.05.2017 23:00:00 17,4 9,6 31 17 45 24 NNW 1024,7 - 0,0
20.05.2017 22:00:00 17,7 11,3 36 19 41 22 NNW 1024,1 - 0,0
20.05.2017 21:00:00 18,4 10,2 15 8 28 15 NNW 1023,8 - 0,0
20.05.2017 20:00:00 18,3 10,6 5 3 10 5 NW 1023,5 - 0,0
20.05.2017 19:00:00 17,5 12,4 9 5 29 15 Z 1023,3 - 0,0
20.05.2017 18:00:00 16,8 11,9 24 13 30 16 ZZO 1023,4 - 0,0
20.05.2017 17:00:00 16,6 11,3 27 14 35 19 ZZO 1023,5 30 0,0

tt = temperatuur
td = dauwpunt
ff = windsnelheid
fx = windstoten
dd = windrichting
ppp = luchtdruk
vv = zicht
rr = neerslag

Weerstations in de omgeving